[[{"header":{"parameterUnit":"m.s-1","parameterCategory":1,"la1":30.2991,"la2":30.254,"lo1":-89.0895,"lo2":-89.0444,"dy":0.0017,"dx":0.0017,"nx":28,"ny":28,"refTime":"2025-07-24T21:00:00:Z","depth":0,"parameterNumber":2,"parameterNumberName":"U-component_of_WINDS"},"data":[0,0,0,0,0,0,0,0,0,0,0,0,0,0,0,0,0,0,0,0,0,0,0,0,0,0,0,0,0,0,0,0,0,0,0,0,0,0,0,0,0,0,0,0,0,0,0,0,0,0,0,0,0,0,0,0,0,0,1.0971,1.0971,0,1.0943,1.0942,1.0942,1.0899,1.0898,1.0897,1.0896,1.0867,1.0866,1.0866,0,0,0,0,0,0,0,0,0,0,0,0,0,1.0988,1.0988,1.0971,1.0971,1.0971,1.0943,1.0942,1.0942,1.0899,1.0898,1.0897,1.0896,1.0867,1.0866,1.0866,0,0,0,0,0,0,0,0,0,0,0,0,0,1.0972,1.0988,1.0971,1.0946,1.0943,1.0943,1.0942,1.0942,1.0899,1.0898,1.0897,1.0895,1.0867,1.0866,1.0866,1.0889,0,0,1.0866,1.0866,0,0,0,0,0,0,0,0,1.0973,1.0972,1.095,1.0948,1.0945,1.0923,1.0937,1.0924,1.0899,1.0916,1.0896,1.0895,1.0886,1.0884,1.0882,1.0887,1.0886,1.0866,1.0866,1.0866,1.0866,0,0,0,0,0,0,0,1.0974,1.0973,1.096,1.095,1.0946,1.0935,1.0932,1.0934,1.0908,1.0914,1.0911,1.0908,1.0885,1.0882,1.0881,1.0886,1.0866,1.0866,1.0866,1.0866,1.0906,1.0907,0,0,0,0,0,0,1.0979,1.0974,1.0961,1.0959,1.0956,1.0936,1.0932,1.0931,1.0908,1.0903,1.0909,1.0906,1.0883,1.0881,1.0879,1.0902,1.0866,1.0866,1.0866,1.0905,1.0906,1.0908,0,0,0,0,0,0,1.098,1.0979,1.0962,1.0966,1.0963,1.0937,1.0936,1.0931,1.0928,1.0904,1.0899,1.0911,1.0882,1.0879,1.0886,1.0901,1.0866,1.0866,1.0904,1.0906,1.0907,1.0949,0,0,0,0,0,0,1.098,1.0979,1.0987,1.0966,1.0963,1.097,1.0937,1.0931,1.0928,1.0924,1.0904,1.09,1.088,1.0887,1.0886,1.09,1.0866,1.0902,1.0905,1.0907,1.0946,1.0952,1.0957,0,0,0,0,0,1.0981,1.1001,1.0988,1.0987,1.0973,1.0971,1.0969,1.0946,1.093,1.0937,1.0922,1.0901,1.09,1.0888,1.0887,1.0901,1.0901,1.0904,1.0906,1.0944,1.0951,1.0957,0,0,0,0,0,0,1.1025,1.0998,1.0983,1.0996,1.0986,1.0964,1.0973,1.0954,1.0949,1.0945,1.0917,1.0913,1.0923,1.0913,1.09,1.092,1.0897,1.09,1.0926,1.0933,1.0938,1.0939,1.0865,0,0,0,0,0,1.1036,1.1037,1.1013,1.1027,1.1023,1.0999,1.0997,1.098,1.0969,1.0964,1.0949,1.0938,1.0935,1.0933,1.0929,1.0945,1.0939,1.0954,1.096,1.0964,1.0966,1.0972,1.0978,1.0916,1.0916,1.0916,0,0,1.1059,1.1044,1.1046,1.1035,1.1025,1.1026,1.0995,1.0998,1.0998,1.0964,1.0969,1.0958,1.0944,1.0955,1.0959,1.0947,1.0982,1.0968,1.0971,1.0971,1.0975,1.0981,1.0986,1.0918,1.0918,1.0917,0,0,1.11,1.109,1.11,1.109,1.1076,1.106,1.1062,1.1042,1.1033,1.1038,1.1012,1.1012,1.1008,1.0998,1.0993,1.103,1.101,1.103,1.1057,1.1063,1.1068,1.1072,1.1084,1.1088,1.1032,1.1033,1.1033,0,1.113,1.1131,1.1107,1.1111,1.1106,1.1076,1.1085,1.1077,1.1062,1.1059,1.1046,1.1039,1.1028,1.1035,1.1044,1.1042,1.1042,1.1031,1.1069,1.1073,1.1077,1.1087,1.1092,1.1035,1.1035,1.1034,1.1034,0,1.1168,1.1169,1.1178,1.1164,1.1161,1.1167,1.1144,1.1143,1.1127,1.1112,1.1117,1.1102,1.1093,1.1094,1.1079,1.1099,1.1092,1.1075,1.1051,1.1085,1.1095,1.1099,1.1038,1.1037,1.1037,1.1036,0,0,1.1235,1.1207,1.1211,1.1203,1.1185,1.1185,1.119,1.1182,1.1181,1.1172,1.1174,1.1171,1.1155,1.1149,1.1132,1.1137,1.1166,1.1119,1.1118,1.1127,1.1185,1.1197,1.1202,1.1153,1.1154,1.1154,1.1186,0,1.1271,1.1278,1.1256,1.1268,1.1268,1.1239,1.1243,1.1232,1.1218,1.1216,1.1201,1.1198,1.1178,1.1173,1.1178,1.1162,1.1177,1.1159,1.1154,1.1154,1.1156,1.1207,1.122,1.125,1.1189,1.119,1.1191,0,1.1315,1.1307,1.1319,1.1299,1.1298,1.1302,1.1292,1.129,1.1277,1.1266,1.1259,1.124,1.1242,1.1221,1.1223,1.1211,1.1208,1.1199,1.12,1.1197,1.1173,1.1204,1.126,1.1263,1.1197,1.1196,1.1196,0,1.136,1.1353,1.1358,1.1353,1.1331,1.1334,1.1324,1.131,1.1306,1.1297,1.1294,1.1287,1.1282,1.1276,1.1254,1.1241,1.1258,1.1235,1.1248,1.1249,1.1252,1.1252,1.1306,1.1253,1.1253,1.1253,1.1253,0,1.1401,1.1409,1.1378,1.1382,1.1389,1.1365,1.1373,1.136,1.1348,1.1347,1.1323,1.1323,1.1295,1.1292,1.1275,1.1278,1.1277,1.1268,1.1263,1.1269,1.127,1.1265,1.1262,1.1254,1.1254,1.1254,1.1253,0,1.1452,1.1432,1.1436,1.1414,1.1409,1.1415,1.1396,1.1398,1.1383,1.1383,1.1382,1.1358,1.1353,1.1331,1.1321,1.131,1.1318,1.131,1.1322,1.1319,1.1332,1.1331,1.1384,1.1389,1.1335,1.1336,1.1336,0,1.1479,1.1485,1.1463,1.1461,1.1453,1.1451,1.1446,1.1423,1.1419,1.1404,1.1407,1.14,1.1393,1.1386,1.1368,1.1359,1.135,1.1369,1.1348,1.1353,1.1347,1.1347,1.1346,1.1373,1.1373,1.1374,1.1374,0,1.1529,1.1518,1.1513,1.1505,1.1501,1.1493,1.1483,1.1483,1.1456,1.1454,1.1448,1.1443,1.1432,1.1425,1.1414,1.1403,1.1384,1.1381,1.1383,1.1389,1.1395,1.139,1.1332,1.138,1.1379,1.1379,1.1379,1.1378,1.1567,1.157,1.1555,1.155,1.154,1.1532,1.1532,1.1517,1.1512,1.1502,1.1488,1.1484,1.1469,1.1452,1.1443,1.1439,1.1428,1.1432,1.1433,1.1434,1.1436,1.1397,1.1437,1.1437,1.1437,1.1437,1.1437,0,1.1613,1.1602,1.1598,1.1585,1.1581,1.1565,1.1553,1.155,1.1547,1.1536,1.1529,1.1522,1.1515,1.1496,1.1487,1.1487,1.1478,1.1485,1.1484,1.1482,1.1447,1.1445,1.1493,1.1493,1.1493,1.1493,1.1493,1.1493,1.1637,1.164,1.1628,1.1626,1.1615,1.1611,1.1605,1.1597,1.1587,1.1581,1.1575,1.1563,1.1548,1.1537,1.1529,1.1524,1.1521,1.1531,1.1522,1.149,1.1484,1.1479,1.1477,1.1531,1.1531,1.1556,1.1557,1.1557]},{"header":{"parameterUnit":"m.s-1","parameterCategory":1,"la1":30.2991,"la2":30.254,"lo1":-89.0895,"lo2":-89.0444,"dy":0.0017,"dx":0.0017,"nx":28,"ny":28,"refTime":"2025-07-24T21:00:00:Z","depth":0,"parameterNumber":3,"parameterNumberName":"V-component_of_WINDS"},"data":[0,0,0,0,0,0,0,0,0,0,0,0,0,0,0,0,0,0,0,0,0,0,0,0,0,0,0,0,0,0,0,0,0,0,0,0,0,0,0,0,0,0,0,0,0,0,0,0,0,0,0,0,0,0,0,0,0,0,5.412,5.4122,0,5.4283,5.4285,5.4287,5.4283,5.4281,5.4279,5.4277,5.4438,5.4444,5.445,0,0,0,0,0,0,0,0,0,0,0,0,0,5.3795,5.3801,5.412,5.4122,5.4124,5.4283,5.4285,5.4287,5.4283,5.4281,5.4278,5.4276,5.4436,5.4443,5.4451,0,0,0,0,0,0,0,0,0,0,0,0,0,5.3945,5.3803,5.4119,5.4141,5.4145,5.4283,5.4285,5.4288,5.4284,5.4281,5.4277,5.4274,5.4433,5.4442,5.4452,5.4577,0,0,5.4481,5.4485,0,0,0,0,0,0,0,0,5.3937,5.3957,5.4136,5.414,5.4144,5.426,5.423,5.4385,5.4285,5.4231,5.4277,5.4273,5.4381,5.4394,5.4432,5.4584,5.4591,5.4482,5.4487,5.4491,5.4494,0,0,0,0,0,0,0,5.3926,5.395,5.4184,5.4138,5.4144,5.414,5.4157,5.4259,5.4322,5.4235,5.4236,5.4255,5.4382,5.4423,5.4436,5.4593,5.4481,5.449,5.4496,5.4499,5.4851,5.4854,0,0,0,0,0,0,5.3912,5.3941,5.4179,5.4189,5.403,5.4148,5.4168,5.4226,5.4321,5.4333,5.4258,5.4254,5.4408,5.4425,5.4441,5.4591,5.4491,5.45,5.4506,5.4847,5.4851,5.4855,0,0,0,0,0,0,5.3905,5.3934,5.4172,5.4065,5.4095,5.4158,5.4222,5.4231,5.4271,5.4338,5.4349,5.4289,5.4406,5.4428,5.4542,5.4596,5.4505,5.4513,5.4843,5.4848,5.4853,5.4892,0,0,0,0,0,0,5.3896,5.3931,5.3982,5.4067,5.4101,5.4274,5.4226,5.4236,5.4289,5.4286,5.437,5.438,5.4405,5.4528,5.4552,5.4608,5.4521,5.4838,5.4845,5.4852,5.4886,5.4898,5.4908,0,0,0,0,0,5.3885,5.3986,5.3984,5.4013,5.4166,5.4277,5.4296,5.4325,5.4293,5.4342,5.4384,5.4378,5.4587,5.454,5.4566,5.4626,5.4835,5.4843,5.4851,5.4881,5.4896,5.4908,0,0,0,0,0,0,5.3905,5.3998,5.3997,5.4129,5.4195,5.4276,5.434,5.434,5.4415,5.4409,5.4439,5.4458,5.4572,5.461,5.4557,5.4749,5.4706,5.472,5.472,5.4734,5.4745,5.4733,5.4529,0,0,0,0,0,5.3925,5.4009,5.4085,5.4194,5.4227,5.4278,5.4327,5.4343,5.4412,5.4439,5.449,5.4555,5.4635,5.4687,5.4765,5.4892,5.4908,5.4945,5.4956,5.4965,5.4976,5.5042,5.5058,5.4882,5.4882,5.4882,0,0,5.3967,5.4028,5.4079,5.42,5.4253,5.4336,5.4301,5.4393,5.4454,5.4453,5.4564,5.4603,5.4676,5.4797,5.4852,5.4832,5.5028,5.4976,5.4982,5.4989,5.5052,5.5069,5.5083,5.4888,5.4887,5.4886,0,0,5.4086,5.4142,5.4237,5.4291,5.4372,5.4404,5.4426,5.4507,5.4533,5.4645,5.4645,5.4716,5.4855,5.4906,5.495,5.5084,5.5079,5.5108,5.5166,5.5229,5.5243,5.5255,5.53,5.5316,5.5119,5.5119,5.512,0,5.4127,5.4256,5.4286,5.4377,5.4428,5.4431,5.4525,5.4575,5.4676,5.471,5.4687,5.4858,5.4908,5.5038,5.5071,5.5108,5.5131,5.5099,5.5239,5.5252,5.5264,5.5306,5.5323,5.5122,5.5122,5.5122,5.5121,0,5.4301,5.4389,5.4456,5.4555,5.4613,5.4705,5.4746,5.4801,5.481,5.4844,5.4955,5.5015,5.5103,5.5135,5.5146,5.5266,5.5251,5.5233,5.519,5.5283,5.5323,5.534,5.5126,5.5125,5.5125,5.5124,0,0,5.4439,5.455,5.4574,5.4617,5.4704,5.4772,5.4862,5.4949,5.4994,5.5063,5.5136,5.5251,5.5235,5.5285,5.5301,5.5357,5.5454,5.5332,5.5334,5.535,5.5585,5.5596,5.5615,5.5451,5.5455,5.5457,5.5578,0,5.4565,5.4728,5.4755,5.4896,5.4976,5.4978,5.5056,5.5116,5.5148,5.5218,5.5253,5.5333,5.5307,5.5336,5.5392,5.5431,5.5501,5.5422,5.5517,5.552,5.5497,5.5637,5.565,5.5762,5.5594,5.5597,5.5599,0,5.4735,5.4808,5.4957,5.503,5.5064,5.5134,5.5213,5.5282,5.5348,5.5367,5.5421,5.543,5.5519,5.5473,5.5594,5.5539,5.5579,5.5603,5.5608,5.5617,5.5564,5.5647,5.5798,5.5814,5.5625,5.5623,5.5621,0,5.4817,5.4952,5.5058,5.5095,5.5183,5.5231,5.527,5.5333,5.5382,5.5451,5.5482,5.556,5.5602,5.566,5.5688,5.5652,5.5806,5.5763,5.5821,5.582,5.5853,5.585,5.601,5.5882,5.5881,5.5881,5.5881,0,5.4954,5.5044,5.5096,5.5161,5.526,5.5289,5.5385,5.5422,5.5478,5.5547,5.5553,5.5617,5.5651,5.5719,5.574,5.5835,5.5855,5.587,5.5874,5.5869,5.5866,5.5894,5.5886,5.5886,5.5885,5.5884,5.5883,0,5.5063,5.5102,5.5216,5.529,5.531,5.538,5.5441,5.5502,5.5533,5.562,5.5642,5.569,5.577,5.5803,5.5902,5.5916,5.6023,5.6023,5.6002,5.6003,5.6058,5.6052,5.6241,5.6265,5.6122,5.6123,5.6125,0,5.5147,5.5217,5.5297,5.5344,5.5384,5.5461,5.5511,5.554,5.5591,5.5669,5.572,5.58,5.5866,5.5993,5.6034,5.6108,5.6108,5.6169,5.6119,5.611,5.6106,5.61,5.6106,5.6178,5.6179,5.618,5.6181,0,5.5292,5.5306,5.5379,5.5457,5.5517,5.5579,5.564,5.5678,5.5716,5.5772,5.5855,5.5905,5.6005,5.6083,5.6158,5.6194,5.6193,5.6196,5.6213,5.6208,5.6191,5.6198,5.6024,5.6192,5.6191,5.619,5.619,5.6189,5.539,5.545,5.5515,5.5594,5.5643,5.5698,5.5758,5.5796,5.5866,5.595,5.5962,5.6049,5.6108,5.621,5.6249,5.6315,5.6299,5.6324,5.6331,5.6336,5.6338,5.6182,5.6329,5.6329,5.6328,5.6328,5.6328,0,5.5532,5.5573,5.5646,5.5731,5.5792,5.5786,5.5852,5.5903,5.598,5.6037,5.6101,5.6192,5.6267,5.6314,5.6388,5.6432,5.6433,5.645,5.6446,5.6454,5.635,5.6326,5.6448,5.6448,5.6448,5.6448,5.6448,5.6448,5.5614,5.5714,5.5735,5.5858,5.5898,5.5984,5.6021,5.6071,5.6116,5.6219,5.6282,5.6312,5.6363,5.6441,5.6507,5.6519,5.6545,5.6563,5.6573,5.6474,5.6462,5.645,5.6428,5.6569,5.6569,5.6671,5.6672,5.6673]}]]